contact:dominique.lefevre@mio.osupytheas.fr, maurice.libes@osupytheas.fr, didier.mallarino@osupytheas.fr
Project:EMSO http://www.emso-fr.org/EMSO-France
Depth: 2436.0 m
Title:EMSO Ligure Ouest : Data MII capteur MICROCAT
DateTime_Computer,Latitude,Longitude,Temperature,Conductivity,Pressure,DateTime_Instrument
DateTime_Computer,Latitude,Longitude,degC,S m-1,dbar,DateTime_Instrument
2021-12-03T00:02:48Z,42.805,6.029,13.2995,4.60021,2470.124,2021-12-03T02:04:16Z
2021-12-03T00:05:52Z,42.805,6.029,13.2998,4.60021,2470.1,2021-12-03T02:07:19Z
2021-12-03T00:08:55Z,42.805,6.029,13.2999,4.60031,2470.096,2021-12-03T02:10:22Z
2021-12-03T00:11:58Z,42.805,6.029,13.2998,4.60032,2470.087,2021-12-03T02:13:25Z
2021-12-03T00:15:01Z,42.805,6.029,13.2994,4.60026,2470.063,2021-12-03T02:16:28Z
2021-12-03T00:18:04Z,42.805,6.029,13.3002,4.60029,2470.1,2021-12-03T02:19:31Z
2021-12-03T00:21:07Z,42.805,6.029,13.2999,4.60027,2470.1,2021-12-03T02:22:35Z
2021-12-03T00:24:10Z,42.805,6.029,13.3000,4.60026,2470.049,2021-12-03T02:25:38Z
2021-12-03T00:27:13Z,42.805,6.029,13.2996,4.60023,2470.049,2021-12-03T02:28:41Z
2021-12-03T00:30:17Z,42.805,6.029,13.3003,4.60031,2470.063,2021-12-03T02:31:44Z
2021-12-03T00:33:20Z,42.805,6.029,13.2997,4.60024,2470.063,2021-12-03T02:34:47Z
2021-12-03T00:36:23Z,42.805,6.029,13.2999,4.60026,2470.063,2021-12-03T02:37:50Z
2021-12-03T00:39:26Z,42.805,6.029,13.2998,4.60028,2470.11,2021-12-03T02:40:53Z
2021-12-03T00:42:29Z,42.805,6.029,13.3003,4.60027,2470.087,2021-12-03T02:43:56Z
2021-12-03T00:45:32Z,42.805,6.029,13.2996,4.60024,2470.124,2021-12-03T02:47:00Z
2021-12-03T00:48:35Z,42.805,6.029,13.2999,4.60025,2470.063,2021-12-03T02:50:03Z
2021-12-03T00:51:38Z,42.805,6.029,13.2998,4.60026,2470.077,2021-12-03T02:53:06Z
2021-12-03T00:54:41Z,42.805,6.029,13.2998,4.60024,2470.077,2021-12-03T02:56:09Z
2021-12-03T00:57:45Z,42.805,6.029,13.2997,4.60026,2470.087,2021-12-03T02:59:12Z
2021-12-03T01:00:48Z,42.805,6.029,13.2998,4.60029,2470.124,2021-12-03T03:02:15Z
2021-12-03T01:03:51Z,42.805,6.029,13.2992,4.60027,2470.087,2021-12-03T03:05:18Z
2021-12-03T01:06:54Z,42.805,6.029,13.2997,4.60039,2470.11,2021-12-03T03:08:21Z
2021-12-03T01:09:57Z,42.805,6.029,13.2999,4.60036,2470.087,2021-12-03T03:11:24Z
2021-12-03T01:13:00Z,42.805,6.029,13.3000,4.60039,2470.124,2021-12-03T03:14:28Z
2021-12-03T01:16:03Z,42.805,6.029,13.2998,4.60026,2470.124,2021-12-03T03:17:31Z
2021-12-03T01:19:06Z,42.805,6.029,13.3000,4.60025,2470.124,2021-12-03T03:20:34Z
2021-12-03T01:22:09Z,42.805,6.029,13.2996,4.60024,2470.087,2021-12-03T03:23:37Z
2021-12-03T01:25:13Z,42.805,6.029,13.3002,4.60033,2470.063,2021-12-03T03:26:40Z
2021-12-03T01:28:16Z,42.805,6.029,13.3000,4.60028,2470.124,2021-12-03T03:29:43Z
2021-12-03T01:31:19Z,42.805,6.029,13.2995,4.60022,2470.1,2021-12-03T03:32:46Z
2021-12-03T01:34:22Z,42.805,6.029,13.2996,4.60026,2470.063,2021-12-03T03:35:49Z
2021-12-03T01:37:25Z,42.805,6.029,13.3003,4.60027,2470.11,2021-12-03T03:38:53Z
2021-12-03T01:40:28Z,42.805,6.029,13.3002,4.60021,2470.087,2021-12-03T03:41:56Z
2021-12-03T01:43:31Z,42.805,6.029,13.2998,4.60022,2470.087,2021-12-03T03:44:59Z
2021-12-03T01:46:34Z,42.805,6.029,13.3000,4.60021,2470.124,2021-12-03T03:48:02Z
2021-12-03T01:49:38Z,42.805,6.029,13.2996,4.60026,2470.11,2021-12-03T03:51:05Z
2021-12-03T01:52:41Z,42.805,6.029,13.3000,4.60024,2470.124,2021-12-03T03:54:08Z
2021-12-03T01:55:44Z,42.805,6.029,13.2996,4.60025,2470.147,2021-12-03T03:57:11Z
2021-12-03T01:58:47Z,42.805,6.029,13.2998,4.60027,2470.11,2021-12-03T04:00:14Z
2021-12-03T02:01:50Z,42.805,6.029,13.2999,4.60025,2470.133,2021-12-03T04:03:17Z
2021-12-03T02:04:53Z,42.805,6.029,13.3001,4.60022,2470.133,2021-12-03T04:06:21Z
2021-12-03T02:07:56Z,42.805,6.029,13.2997,4.60020,2470.133,2021-12-03T04:09:24Z
2021-12-03T02:10:59Z,42.805,6.029,13.2998,4.60021,2470.147,2021-12-03T04:12:27Z
2021-12-03T02:14:03Z,42.805,6.029,13.3004,4.60022,2470.147,2021-12-03T04:15:30Z
2021-12-03T02:17:06Z,42.805,6.029,13.3000,4.60029,2470.133,2021-12-03T04:18:33Z
2021-12-03T02:20:09Z,42.805,6.029,13.2999,4.60023,2470.133,2021-12-03T04:21:36Z
2021-12-03T02:23:12Z,42.805,6.029,13.2995,4.60031,2470.133,2021-12-03T04:24:39Z
2021-12-03T02:26:15Z,42.805,6.029,13.2998,4.60022,2470.156,2021-12-03T04:27:42Z
2021-12-03T02:29:18Z,42.805,6.029,13.3000,4.60020,2470.156,2021-12-03T04:30:46Z
2021-12-03T02:32:21Z,42.805,6.029,13.2996,4.60027,2470.147,2021-12-03T04:33:49Z
2021-12-03T02:35:24Z,42.805,6.029,13.3000,4.60022,2470.203,2021-12-03T04:36:52Z
2021-12-03T02:38:27Z,42.805,6.029,13.2997,4.60022,2470.147,2021-12-03T04:39:55Z
2021-12-03T02:41:31Z,42.805,6.029,13.2996,4.60024,2470.133,2021-12-03T04:42:58Z
2021-12-03T02:44:34Z,42.805,6.029,13.2998,4.60022,2470.194,2021-12-03T04:46:01Z
2021-12-03T02:47:37Z,42.805,6.029,13.2996,4.60022,2470.18,2021-12-03T04:49:04Z
2021-12-03T02:50:40Z,42.805,6.029,13.3001,4.60023,2470.18,2021-12-03T04:52:07Z
2021-12-03T02:53:43Z,42.805,6.029,13.2996,4.60026,2470.171,2021-12-03T04:55:11Z
2021-12-03T02:56:46Z,42.805,6.029,13.2996,4.60027,2470.194,2021-12-03T04:58:14Z
2021-12-03T02:59:49Z,42.805,6.029,13.2993,4.60031,2470.194,2021-12-03T05:01:17Z
2021-12-03T03:02:52Z,42.805,6.029,13.2994,4.60022,2470.203,2021-12-03T05:04:20Z
2021-12-03T03:05:56Z,42.805,6.029,13.2997,4.60027,2470.18,2021-12-03T05:07:23Z
2021-12-03T03:08:59Z,42.805,6.029,13.3006,4.60031,2470.194,2021-12-03T05:10:26Z
2021-12-03T03:12:02Z,42.805,6.029,13.3001,4.60028,2470.217,2021-12-03T05:13:29Z
2021-12-03T03:15:05Z,42.805,6.029,13.2998,4.60021,2470.18,2021-12-03T05:16:32Z
2021-12-03T03:18:08Z,42.805,6.029,13.3000,4.60023,2470.18,2021-12-03T05:19:35Z
2021-12-03T03:21:11Z,42.805,6.029,13.3003,4.60030,2470.203,2021-12-03T05:22:39Z
2021-12-03T03:24:14Z,42.805,6.029,13.2996,4.60029,2470.203,2021-12-03T05:25:42Z
2021-12-03T03:27:17Z,42.805,6.029,13.2995,4.60023,2470.25,2021-12-03T05:28:45Z
2021-12-03T03:30:21Z,42.805,6.029,13.3000,4.60022,2470.24,2021-12-03T05:31:48Z
2021-12-03T03:33:24Z,42.805,6.029,13.2997,4.60022,2470.18,2021-12-03T05:34:51Z
2021-12-03T03:36:27Z,42.805,6.029,13.2995,4.60024,2470.25,2021-12-03T05:37:54Z
2021-12-03T03:39:30Z,42.805,6.029,13.2997,4.60021,2470.24,2021-12-03T05:40:57Z
2021-12-03T03:42:33Z,42.805,6.029,13.3002,4.60024,2470.24,2021-12-03T05:44:00Z
2021-12-03T03:45:36Z,42.805,6.029,13.2996,4.60022,2470.24,2021-12-03T05:47:04Z
2021-12-03T03:48:39Z,42.805,6.029,13.2996,4.60025,2470.227,2021-12-03T05:50:07Z
2021-12-03T03:51:42Z,42.805,6.029,13.2996,4.60028,2470.25,2021-12-03T05:53:10Z
2021-12-03T03:54:45Z,42.805,6.029,13.2997,4.60021,2470.24,2021-12-03T05:56:13Z
2021-12-03T03:57:49Z,42.805,6.029,13.2996,4.60025,2470.273,2021-12-03T05:59:16Z
2021-12-03T04:00:52Z,42.805,6.029,13.3002,4.60030,2470.227,2021-12-03T06:02:19Z
2021-12-03T04:03:55Z,42.805,6.029,13.3000,4.60036,2470.24,2021-12-03T06:05:22Z
2021-12-03T04:06:58Z,42.805,6.029,13.2998,4.60036,2470.24,2021-12-03T06:08:25Z
2021-12-03T04:10:01Z,42.805,6.029,13.2995,4.60024,2470.273,2021-12-03T06:11:29Z
2021-12-03T04:13:04Z,42.805,6.029,13.2996,4.60026,2470.264,2021-12-03T06:14:32Z
2021-12-03T04:16:07Z,42.805,6.029,13.2996,4.60031,2470.273,2021-12-03T06:17:35Z
2021-12-03T04:19:10Z,42.805,6.029,13.2998,4.60027,2470.273,2021-12-03T06:20:38Z
2021-12-03T04:22:14Z,42.805,6.029,13.2998,4.60033,2470.264,2021-12-03T06:23:41Z
2021-12-03T04:25:17Z,42.805,6.029,13.2997,4.60033,2470.287,2021-12-03T06:26:44Z
2021-12-03T04:28:20Z,42.805,6.029,13.2993,4.60024,2470.287,2021-12-03T06:29:47Z
2021-12-03T04:31:23Z,42.805,6.029,13.3001,4.60037,2470.287,2021-12-03T06:32:50Z
2021-12-03T04:34:26Z,42.805,6.029,13.2994,4.60027,2470.273,2021-12-03T06:35:53Z
2021-12-03T04:37:29Z,42.805,6.029,13.3000,4.60024,2470.31,2021-12-03T06:38:57Z
2021-12-03T04:40:32Z,42.805,6.029,13.3000,4.60023,2470.297,2021-12-03T06:42:00Z
2021-12-03T04:43:35Z,42.805,6.029,13.2996,4.60023,2470.25,2021-12-03T06:45:03Z
2021-12-03T04:46:39Z,42.805,6.029,13.2996,4.60021,2470.297,2021-12-03T06:48:06Z
2021-12-03T04:49:42Z,42.805,6.029,13.3003,4.60025,2470.297,2021-12-03T06:51:09Z
2021-12-03T04:52:45Z,42.805,6.029,13.2996,4.60026,2470.297,2021-12-03T06:54:12Z
2021-12-03T04:55:48Z,42.805,6.029,13.3001,4.60039,2470.31,2021-12-03T06:57:15Z
2021-12-03T04:58:51Z,42.805,6.029,13.3000,4.60024,2470.273,2021-12-03T07:00:18Z
2021-12-03T05:01:54Z,42.805,6.029,13.3000,4.60042,2470.32,2021-12-03T07:03:22Z
2021-12-03T05:04:57Z,42.805,6.029,13.3004,4.60044,2470.297,2021-12-03T07:06:25Z
2021-12-03T05:08:00Z,42.805,6.029,13.2997,4.60025,2470.334,2021-12-03T07:09:28Z
2021-12-03T05:11:03Z,42.805,6.029,13.2997,4.60025,2470.297,2021-12-03T07:12:31Z
2021-12-03T05:14:07Z,42.805,6.029,13.2997,4.60026,2470.334,2021-12-03T07:15:34Z
2021-12-03T05:17:10Z,42.805,6.029,13.2993,4.60032,2470.297,2021-12-03T07:18:37Z
2021-12-03T05:20:13Z,42.805,6.029,13.2993,4.60021,2470.334,2021-12-03T07:21:40Z
2021-12-03T05:23:16Z,42.805,6.029,13.2997,4.60024,2470.343,2021-12-03T07:24:43Z
2021-12-03T05:26:19Z,42.805,6.029,13.2996,4.60025,2470.32,2021-12-03T07:27:46Z
2021-12-03T05:29:22Z,42.805,6.029,13.2998,4.60029,2470.32,2021-12-03T07:30:50Z
2021-12-03T05:32:25Z,42.805,6.029,13.2997,4.60021,2470.357,2021-12-03T07:33:53Z
2021-12-03T05:35:28Z,42.805,6.029,13.2998,4.60022,2470.343,2021-12-03T07:36:56Z
2021-12-03T05:38:32Z,42.805,6.029,13.2997,4.60025,2470.357,2021-12-03T07:39:59Z
2021-12-03T05:41:35Z,42.805,6.029,13.3004,4.60032,2470.343,2021-12-03T07:43:02Z
2021-12-03T05:44:38Z,42.805,6.029,13.2998,4.60026,2470.343,2021-12-03T07:46:05Z
2021-12-03T05:47:41Z,42.805,6.029,13.3000,4.60026,2470.32,2021-12-03T07:49:08Z
2021-12-03T05:50:44Z,42.805,6.029,13.2998,4.60022,2470.38,2021-12-03T07:52:11Z
2021-12-03T05:53:47Z,42.805,6.029,13.2995,4.60024,2470.32,2021-12-03T07:55:15Z
2021-12-03T05:56:50Z,42.805,6.029,13.3001,4.60023,2470.357,2021-12-03T07:58:18Z
2021-12-03T05:59:53Z,42.805,6.029,13.3000,4.60024,2470.366,2021-12-03T08:01:21Z
2021-12-03T06:02:56Z,42.805,6.029,13.3001,4.60025,2470.38,2021-12-03T08:04:24Z
2021-12-03T06:06:00Z,42.805,6.029,13.2995,4.60023,2470.357,2021-12-03T08:07:27Z
2021-12-03T06:09:03Z,42.805,6.029,13.3000,4.60026,2470.343,2021-12-03T08:10:30Z
2021-12-03T06:12:06Z,42.805,6.029,13.2999,4.60038,2470.343,2021-12-03T08:13:33Z
2021-12-03T06:15:09Z,42.805,6.029,13.3001,4.60032,2470.343,2021-12-03T08:16:36Z
2021-12-03T06:18:12Z,42.805,6.029,13.3001,4.60026,2470.343,2021-12-03T08:19:39Z
2021-12-03T06:21:15Z,42.805,6.029,13.2997,4.60025,2470.366,2021-12-03T08:22:43Z
2021-12-03T06:24:18Z,42.805,6.029,13.3002,4.60029,2470.343,2021-12-03T08:25:46Z
2021-12-03T06:27:21Z,42.805,6.029,13.3000,4.60029,2470.32,2021-12-03T08:28:49Z
2021-12-03T06:30:25Z,42.805,6.029,13.3004,4.60033,2470.343,2021-12-03T08:31:52Z
2021-12-03T06:33:28Z,42.805,6.029,13.2998,4.60029,2470.343,2021-12-03T08:34:55Z
2021-12-03T06:36:31Z,42.805,6.029,13.2998,4.60027,2470.343,2021-12-03T08:37:58Z
2021-12-03T06:39:34Z,42.805,6.029,13.2999,4.60031,2470.366,2021-12-03T08:41:01Z
2021-12-03T06:42:37Z,42.805,6.029,13.2998,4.60024,2470.38,2021-12-03T08:44:04Z
2021-12-03T06:45:40Z,42.805,6.029,13.2996,4.60029,2470.343,2021-12-03T08:47:08Z
2021-12-03T06:48:43Z,42.805,6.029,13.3003,4.60032,2470.38,2021-12-03T08:50:11Z
2021-12-03T06:51:46Z,42.805,6.029,13.3000,4.60028,2470.357,2021-12-03T08:53:14Z
2021-12-03T06:54:49Z,42.805,6.029,13.2998,4.60031,2470.366,2021-12-03T08:56:17Z
2021-12-03T06:57:53Z,42.805,6.029,13.3002,4.60033,2470.32,2021-12-03T08:59:20Z
2021-12-03T07:00:56Z,42.805,6.029,13.2998,4.60032,2470.343,2021-12-03T09:02:23Z
2021-12-03T07:03:59Z,42.805,6.029,13.2999,4.60025,2470.343,2021-12-03T09:05:26Z
2021-12-03T07:07:02Z,42.805,6.029,13.3002,4.60026,2470.32,2021-12-03T09:08:29Z
2021-12-03T07:10:05Z,42.805,6.029,13.3001,4.60025,2470.357,2021-12-03T09:11:33Z
2021-12-03T07:13:08Z,42.805,6.029,13.3000,4.60023,2470.357,2021-12-03T09:14:36Z
2021-12-03T07:16:11Z,42.805,6.029,13.2995,4.60021,2470.357,2021-12-03T09:17:39Z
2021-12-03T07:19:14Z,42.805,6.029,13.2998,4.60028,2470.334,2021-12-03T09:20:42Z
2021-12-03T07:22:18Z,42.805,6.029,13.2999,4.60027,2470.366,2021-12-03T09:23:45Z
2021-12-03T07:25:21Z,42.805,6.029,13.2998,4.60026,2470.32,2021-12-03T09:26:48Z
2021-12-03T07:28:24Z,42.805,6.029,13.3000,4.60029,2470.343,2021-12-03T09:29:51Z
2021-12-03T07:31:27Z,42.805,6.029,13.3000,4.60028,2470.357,2021-12-03T09:32:54Z
2021-12-03T07:34:30Z,42.805,6.029,13.3001,4.60026,2470.343,2021-12-03T09:35:57Z
2021-12-03T07:37:33Z,42.805,6.029,13.2998,4.60024,2470.343,2021-12-03T09:39:01Z
2021-12-03T07:40:36Z,42.805,6.029,13.2995,4.60024,2470.334,2021-12-03T09:42:04Z
2021-12-03T07:43:39Z,42.805,6.029,13.2997,4.60026,2470.334,2021-12-03T09:45:07Z
2021-12-03T07:46:42Z,42.805,6.029,13.2998,4.60024,2470.334,2021-12-03T09:48:10Z
2021-12-03T07:49:46Z,42.805,6.029,13.3000,4.60026,2470.343,2021-12-03T09:51:13Z
2021-12-03T07:52:49Z,42.805,6.029,13.2997,4.60031,2470.32,2021-12-03T09:54:16Z
2021-12-03T07:55:52Z,42.805,6.029,13.3000,4.60028,2470.343,2021-12-03T09:57:19Z
2021-12-03T07:58:55Z,42.805,6.029,13.3000,4.60040,2470.366,2021-12-03T10:00:22Z
2021-12-03T08:01:58Z,42.805,6.029,13.3000,4.60031,2470.32,2021-12-03T10:03:26Z
2021-12-03T08:05:01Z,42.805,6.029,13.2997,4.60032,2470.33,2021-12-03T10:06:29Z
2021-12-03T08:08:04Z,42.805,6.029,13.3002,4.60029,2470.297,2021-12-03T10:09:32Z
2021-12-03T08:11:07Z,42.805,6.029,13.2995,4.60025,2470.32,2021-12-03T10:12:35Z
2021-12-03T08:14:11Z,42.805,6.029,13.2996,4.60024,2470.31,2021-12-03T10:15:38Z
2021-12-03T08:17:14Z,42.805,6.029,13.2997,4.60036,2470.32,2021-12-03T10:18:41Z
2021-12-03T08:20:17Z,42.805,6.029,13.2994,4.60021,2470.32,2021-12-03T10:21:44Z
2021-12-03T08:23:20Z,42.805,6.029,13.2993,4.60019,2470.366,2021-12-03T10:24:47Z
2021-12-03T08:26:23Z,42.805,6.029,13.3001,4.60028,2470.334,2021-12-03T10:27:51Z
2021-12-03T08:29:26Z,42.805,6.029,13.2998,4.60023,2470.343,2021-12-03T10:30:54Z
2021-12-03T08:32:29Z,42.805,6.029,13.2997,4.60032,2470.334,2021-12-03T10:33:57Z
2021-12-03T08:35:32Z,42.805,6.029,13.2998,4.60028,2470.306,2021-12-03T10:37:00Z
2021-12-03T08:38:36Z,42.805,6.029,13.2998,4.60026,2470.32,2021-12-03T10:40:03Z
2021-12-03T08:41:39Z,42.805,6.029,13.2997,4.60026,2470.32,2021-12-03T10:43:06Z
2021-12-03T08:44:42Z,42.805,6.029,13.2997,4.60022,2470.31,2021-12-03T10:46:09Z
2021-12-03T08:47:45Z,42.805,6.029,13.3000,4.60027,2470.32,2021-12-03T10:49:12Z
2021-12-03T08:50:48Z,42.805,6.029,13.3005,4.60030,2470.306,2021-12-03T10:52:16Z
2021-12-03T08:53:51Z,42.805,6.029,13.2997,4.60031,2470.32,2021-12-03T10:55:19Z
2021-12-03T08:56:54Z,42.805,6.029,13.2998,4.60031,2470.32,2021-12-03T10:58:22Z
2021-12-03T08:59:57Z,42.805,6.029,13.2998,4.60037,2470.31,2021-12-03T11:01:25Z
2021-12-03T09:03:01Z,42.805,6.029,13.2996,4.60020,2470.31,2021-12-03T11:04:28Z
2021-12-03T09:06:04Z,42.805,6.029,13.2996,4.60019,2470.31,2021-12-03T11:07:31Z
2021-12-03T09:09:07Z,42.805,6.029,13.2998,4.60026,2470.31,2021-12-03T11:10:34Z
2021-12-03T09:12:10Z,42.805,6.029,13.2997,4.60026,2470.31,2021-12-03T11:13:37Z
2021-12-03T09:15:13Z,42.805,6.029,13.2999,4.60027,2470.31,2021-12-03T11:16:41Z
2021-12-03T09:18:16Z,42.805,6.029,13.2996,4.60027,2470.283,2021-12-03T11:19:44Z
2021-12-03T09:21:19Z,42.805,6.029,13.2997,4.60021,2470.297,2021-12-03T11:22:47Z
2021-12-03T09:24:22Z,42.805,6.029,13.2997,4.60025,2470.287,2021-12-03T11:25:50Z
2021-12-03T09:27:26Z,42.805,6.029,13.3001,4.60029,2470.32,2021-12-03T11:28:53Z
2021-12-03T09:30:29Z,42.805,6.029,13.3000,4.60027,2470.334,2021-12-03T11:31:56Z
2021-12-03T09:33:32Z,42.805,6.029,13.3000,4.60026,2470.297,2021-12-03T11:34:59Z
2021-12-03T09:36:35Z,42.805,6.029,13.2993,4.60026,2470.297,2021-12-03T11:38:02Z
2021-12-03T09:39:38Z,42.805,6.029,13.2998,4.60026,2470.25,2021-12-03T11:41:06Z
2021-12-03T09:42:41Z,42.805,6.029,13.2998,4.60033,2470.287,2021-12-03T11:44:09Z
2021-12-03T09:45:44Z,42.805,6.029,13.2999,4.60023,2470.273,2021-12-03T11:47:12Z
2021-12-03T09:48:47Z,42.805,6.029,13.2994,4.60022,2470.264,2021-12-03T11:50:15Z
2021-12-03T09:51:51Z,42.805,6.029,13.2998,4.60026,2470.273,2021-12-03T11:53:18Z
2021-12-03T09:54:54Z,42.805,6.029,13.3000,4.60029,2470.287,2021-12-03T11:56:21Z
2021-12-03T09:57:57Z,42.805,6.029,13.2998,4.60036,2470.31,2021-12-03T11:59:24Z
2021-12-03T10:01:00Z,42.805,6.029,13.2999,4.60036,2470.273,2021-12-03T12:02:27Z
2021-12-03T10:04:03Z,42.805,6.029,13.3000,4.60039,2470.264,2021-12-03T12:05:31Z
2021-12-03T10:07:06Z,42.805,6.029,13.2998,4.60021,2470.273,2021-12-03T12:08:34Z
2021-12-03T10:10:09Z,42.805,6.029,13.2999,4.60022,2470.264,2021-12-03T12:11:37Z
2021-12-03T10:13:12Z,42.805,6.029,13.2996,4.60024,2470.25,2021-12-03T12:14:40Z
2021-12-03T10:16:16Z,42.805,6.029,13.3000,4.60023,2470.297,2021-12-03T12:17:43Z
2021-12-03T10:19:19Z,42.805,6.029,13.3000,4.60036,2470.273,2021-12-03T12:20:46Z
2021-12-03T10:22:22Z,42.805,6.029,13.2998,4.60039,2470.264,2021-12-03T12:23:49Z
2021-12-03T10:25:25Z,42.805,6.029,13.3000,4.60029,2470.25,2021-12-03T12:26:52Z
2021-12-03T10:28:28Z,42.805,6.029,13.3000,4.60025,2470.264,2021-12-03T12:29:56Z
2021-12-03T10:31:31Z,42.805,6.029,13.2996,4.60041,2470.25,2021-12-03T12:32:59Z
2021-12-03T10:34:34Z,42.805,6.029,13.3000,4.60028,2470.273,2021-12-03T12:36:02Z
2021-12-03T10:37:37Z,42.805,6.029,13.2998,4.60026,2470.264,2021-12-03T12:39:05Z
2021-12-03T10:40:41Z,42.805,6.029,13.2998,4.60022,2470.227,2021-12-03T12:42:08Z
2021-12-03T10:43:44Z,42.805,6.029,13.2998,4.60023,2470.227,2021-12-03T12:45:11Z
2021-12-03T10:46:47Z,42.805,6.029,13.2993,4.60021,2470.264,2021-12-03T12:48:14Z
2021-12-03T10:49:50Z,42.805,6.029,13.3000,4.60031,2470.264,2021-12-03T12:51:17Z
2021-12-03T10:52:53Z,42.805,6.029,13.2998,4.60027,2470.203,2021-12-03T12:54:21Z
2021-12-03T10:55:56Z,42.805,6.029,13.2997,4.60021,2470.264,2021-12-03T12:57:24Z
2021-12-03T10:58:59Z,42.805,6.029,13.3000,4.60027,2470.24,2021-12-03T13:00:27Z
2021-12-03T11:02:02Z,42.805,6.029,13.3000,4.60026,2470.227,2021-12-03T13:03:30Z
2021-12-03T11:05:05Z,42.805,6.029,13.3000,4.60026,2470.227,2021-12-03T13:06:33Z
2021-12-03T11:08:09Z,42.805,6.029,13.3002,4.60033,2470.203,2021-12-03T13:09:36Z
2021-12-03T11:11:12Z,42.805,6.029,13.2995,4.60021,2470.194,2021-12-03T13:12:39Z
2021-12-03T11:14:15Z,42.805,6.029,13.2999,4.60031,2470.24,2021-12-03T13:15:42Z
2021-12-03T11:17:18Z,42.805,6.029,13.2998,4.60024,2470.18,2021-12-03T13:18:45Z
2021-12-03T11:20:21Z,42.805,6.029,13.2993,4.60027,2470.227,2021-12-03T13:21:49Z
2021-12-03T11:23:24Z,42.805,6.029,13.2998,4.60026,2470.25,2021-12-03T13:24:52Z
2021-12-03T11:26:27Z,42.805,6.029,13.3001,4.60026,2470.227,2021-12-03T13:27:55Z
2021-12-03T11:29:30Z,42.805,6.029,13.3004,4.60026,2470.24,2021-12-03T13:30:58Z
2021-12-03T11:32:34Z,42.805,6.029,13.2999,4.60024,2470.227,2021-12-03T13:34:01Z
2021-12-03T11:35:37Z,42.805,6.029,13.2995,4.60023,2470.203,2021-12-03T13:37:04Z
2021-12-03T11:38:40Z,42.805,6.029,13.2993,4.60026,2470.217,2021-12-03T13:40:07Z
2021-12-03T11:41:43Z,42.805,6.029,13.2997,4.60021,2470.24,2021-12-03T13:43:10Z
2021-12-03T11:44:46Z,42.805,6.029,13.2998,4.60024,2470.203,2021-12-03T13:46:14Z
2021-12-03T11:47:49Z,42.805,6.029,13.2996,4.60033,2470.217,2021-12-03T13:49:17Z
2021-12-03T11:50:52Z,42.805,6.029,13.3000,4.60023,2470.203,2021-12-03T13:52:20Z
2021-12-03T11:53:55Z,42.805,6.029,13.2997,4.60022,2470.203,2021-12-03T13:55:23Z
2021-12-03T11:56:59Z,42.805,6.029,13.2997,4.60024,2470.203,2021-12-03T13:58:26Z
2021-12-03T12:00:02Z,42.805,6.029,13.2998,4.60021,2470.203,2021-12-03T14:01:29Z
2021-12-03T12:03:05Z,42.805,6.029,13.3008,4.60039,2470.217,2021-12-03T14:04:32Z
2021-12-03T12:06:08Z,42.805,6.029,13.2993,4.60025,2470.24,2021-12-03T14:07:35Z
2021-12-03T12:09:11Z,42.805,6.029,13.2998,4.60024,2470.18,2021-12-03T14:10:39Z
2021-12-03T12:12:14Z,42.805,6.029,13.2996,4.60026,2470.203,2021-12-03T14:13:42Z
2021-12-03T12:15:17Z,42.805,6.029,13.2996,4.60021,2470.194,2021-12-03T14:16:45Z
2021-12-03T12:18:20Z,42.805,6.029,13.3002,4.60022,2470.194,2021-12-03T14:19:48Z
2021-12-03T12:21:24Z,42.805,6.029,13.2996,4.60023,2470.203,2021-12-03T14:22:51Z
2021-12-03T12:24:27Z,42.805,6.029,13.3000,4.60024,2470.194,2021-12-03T14:25:54Z
2021-12-03T12:27:30Z,42.805,6.029,13.2996,4.60031,2470.18,2021-12-03T14:28:57Z
2021-12-03T12:30:33Z,42.805,6.029,13.3011,4.60039,2470.18,2021-12-03T14:32:00Z
2021-12-03T12:33:36Z,42.805,6.029,13.2993,4.60022,2470.217,2021-12-03T14:35:04Z
2021-12-03T12:36:39Z,42.805,6.029,13.2997,4.60026,2470.194,2021-12-03T14:38:07Z
2021-12-03T12:39:42Z,42.805,6.029,13.2999,4.60026,2470.203,2021-12-03T14:41:10Z
2021-12-03T12:42:45Z,42.805,6.029,13.2999,4.60026,2470.203,2021-12-03T14:44:13Z
2021-12-03T12:45:49Z,42.805,6.029,13.3000,4.60033,2470.217,2021-12-03T14:47:16Z
2021-12-03T12:48:52Z,42.805,6.029,13.2993,4.60028,2470.217,2021-12-03T14:50:19Z
2021-12-03T12:51:55Z,42.805,6.029,13.2996,4.60034,2470.18,2021-12-03T14:53:22Z
2021-12-03T12:54:58Z,42.805,6.029,13.2999,4.60031,2470.166,2021-12-03T14:56:25Z
2021-12-03T12:58:01Z,42.805,6.029,13.3000,4.60022,2470.217,2021-12-03T14:59:29Z
2021-12-03T13:01:04Z,42.805,6.029,13.3004,4.60027,2470.217,2021-12-03T15:02:32Z
2021-12-03T13:04:07Z,42.805,6.029,13.2996,4.60027,2470.217,2021-12-03T15:05:35Z
2021-12-03T13:07:10Z,42.805,6.029,13.2995,4.60033,2470.203,2021-12-03T15:08:38Z
2021-12-03T13:10:14Z,42.805,6.029,13.2999,4.60037,2470.18,2021-12-03T15:11:41Z
2021-12-03T13:13:17Z,42.805,6.029,13.2999,4.60033,2470.203,2021-12-03T15:14:44Z
2021-12-03T13:16:20Z,42.805,6.029,13.3000,4.60023,2470.203,2021-12-03T15:17:47Z
2021-12-03T13:19:23Z,42.805,6.029,13.3000,4.60024,2470.203,2021-12-03T15:20:50Z
2021-12-03T13:22:26Z,42.805,6.029,13.2993,4.60029,2470.194,2021-12-03T15:23:54Z
2021-12-03T13:25:29Z,42.805,6.029,13.2994,4.60023,2470.24,2021-12-03T15:26:57Z
2021-12-03T13:28:32Z,42.805,6.029,13.2996,4.60022,2470.217,2021-12-03T15:30:00Z
2021-12-03T13:31:35Z,42.805,6.029,13.3000,4.60025,2470.18,2021-12-03T15:33:03Z
2021-12-03T13:34:39Z,42.805,6.029,13.3000,4.60029,2470.203,2021-12-03T15:36:06Z
2021-12-03T13:37:42Z,42.805,6.029,13.3000,4.60033,2470.194,2021-12-03T15:39:09Z
2021-12-03T13:40:45Z,42.805,6.029,13.2998,4.60025,2470.217,2021-12-03T15:42:12Z
2021-12-03T13:43:48Z,42.805,6.029,13.2996,4.60029,2470.18,2021-12-03T15:45:15Z
2021-12-03T13:46:51Z,42.805,6.029,13.2993,4.60023,2470.203,2021-12-03T15:48:19Z
2021-12-03T13:49:54Z,42.805,6.029,13.2998,4.60026,2470.227,2021-12-03T15:51:22Z
2021-12-03T13:52:57Z,42.805,6.029,13.2993,4.60021,2470.217,2021-12-03T15:54:25Z
2021-12-03T13:56:00Z,42.805,6.029,13.2996,4.60021,2470.203,2021-12-03T15:57:28Z
2021-12-03T13:59:04Z,42.805,6.029,13.2999,4.60027,2470.217,2021-12-03T16:00:31Z
2021-12-03T14:02:07Z,42.805,6.029,13.2993,4.60029,2470.217,2021-12-03T16:03:34Z
2021-12-03T14:05:10Z,42.805,6.029,13.2996,4.60028,2470.194,2021-12-03T16:06:37Z
2021-12-03T14:08:13Z,42.805,6.029,13.2996,4.60023,2470.217,2021-12-03T16:09:40Z
2021-12-03T14:11:16Z,42.805,6.029,13.2999,4.60021,2470.203,2021-12-03T16:12:44Z
2021-12-03T14:14:19Z,42.805,6.029,13.2997,4.60030,2470.24,2021-12-03T16:15:47Z
2021-12-03T14:17:22Z,42.805,6.029,13.2997,4.60025,2470.203,2021-12-03T16:18:50Z
2021-12-03T14:20:25Z,42.805,6.029,13.3001,4.60026,2470.217,2021-12-03T16:21:53Z
2021-12-03T14:23:29Z,42.805,6.029,13.2994,4.60023,2470.227,2021-12-03T16:24:56Z
2021-12-03T14:26:32Z,42.805,6.029,13.3000,4.60028,2470.217,2021-12-03T16:27:59Z
2021-12-03T14:29:35Z,42.805,6.029,13.3002,4.60026,2470.217,2021-12-03T16:31:02Z
2021-12-03T14:32:38Z,42.805,6.029,13.2994,4.60044,2470.25,2021-12-03T16:34:05Z
2021-12-03T14:35:41Z,42.805,6.029,13.3000,4.60031,2470.25,2021-12-03T16:37:09Z
2021-12-03T14:38:44Z,42.805,6.029,13.2999,4.60021,2470.264,2021-12-03T16:40:12Z
2021-12-03T14:41:47Z,42.805,6.029,13.2993,4.60027,2470.227,2021-12-03T16:43:15Z
2021-12-03T14:44:50Z,42.805,6.029,13.2996,4.60026,2470.227,2021-12-03T16:46:18Z
2021-12-03T14:47:54Z,42.805,6.029,13.2996,4.60026,2470.24,2021-12-03T16:49:21Z
2021-12-03T14:50:57Z,42.805,6.029,13.3004,4.60036,2470.25,2021-12-03T16:52:24Z
2021-12-03T14:54:00Z,42.805,6.029,13.3002,4.60029,2470.25,2021-12-03T16:55:27Z
2021-12-03T14:57:03Z,42.805,6.029,13.3000,4.60021,2470.227,2021-12-03T16:58:30Z
2021-12-03T15:00:06Z,42.805,6.029,13.2999,4.60029,2470.264,2021-12-03T17:01:34Z
2021-12-03T15:03:09Z,42.805,6.029,13.3000,4.60026,2470.273,2021-12-03T17:04:37Z